Temp
10 10 10 10 10 10 11 11 11 11 11 11 11 11 12 12 12 12 12 12 12 12 12 13 13 13 13 13 13 13 13 13 14 14 14 14 14 14 14 14 14 14 14 14 14 14 14 14 14 14 14 15 15 15 14 14 14 14 14 14 14 14 14 13 13 13 13 13 13 13 13 13 13 13
10 10 10 10 10 10 11 11 11 11 11 11 11 12 12 12 12 12 12 12 12 12 12 13 13 13 13 13 13 13 13 13 14 14 14 14 14 14 14 14 14 14 14 14 14 14 14 14 14 14 14 14 15 15 15 14 14 14 14 14 14 14 14 14 14 13 13 13 13 13 13 13 13 13
10 10 10 10 10 10 11 11 11 11 11 11 11 11 12 12 12 12 12 12 12 12 12 12 13 13 13 13 13 13 13 14 13 14 14 14 14 14 14 14 14 14 14 14 14 14 14 14 14 14 14 14 15 15 15 15 15 15 15 14 14 14 14 14 14 14 14 14 14 14 13 13 14 14
10 10 10 10 10 10 11 11 11 11 11 11 11 11 11 12 12 12 13 13 13 13 13 13 13 13 13 13 13 13 13 14 14 14 14 14 14 14 14 14 14 14 14 14 14 14 14 14 14 14 14 14 14 15 15 15 15 15 15 14 14 14 14 14 14 14 14 14 14 14 14 14 14 14
10 10 10 10 10 11 11 11 11 11 11 11 11 11 11 12 12 12 13 13 13 13 13 13 13 13 13 13 13 13 13 14 14 14 14 14 14 14 14 14 14 14 14 14 14 14 14 14 14 14 14 14 14 14 15 15 15 15 15 15 15 15 15 15 14 14 14 14 14 14 14 14 14 14
10 10 11 11 11 11 11 11 11 11 11 11 11 11 11 11 11 12 12 12 13 13 13 13 13 13 13 13 13 13 13 13 14 14 14 14 14 14 14 14 14 14 14 14 14 14 14 14 14 14 14 14 14 14 14 15 15 15 15 15 15 15 15 15 15 15 14 14 14 14 14 14 14 14
11 11 11 11 11 11 11 11 11 11 11 11 11 11 11 11 11 12 12 12 12 12 13 13 13 13 13 13 13 13 14 13 14 14 13 13 14 13 13 14 14 14 14 14 14 13 13 13 14 14 14 14 14 14 14 14 15 15 15 15 15 15 15 15 15 15 15 15 14 14 14 14 14 14
11 11 11 11 11 11 11 11 11 11 11 11 11 11 11 11 11 11 12 12 12 12 12 12 13 13 13 13 13 13 13 14 14 14 14 13 14 13 13 13 14 14 14 14 14 13 13 13 13 13 13 14 14 14 14 14 14 15 15 15 15 15 15 15 15 15 15 15 14 14 14 15 14 14
11 11 11 11 11 11 11 11 11 11 11 11 11 11 11 11 11 11 12 12 12 12 12 12 12 12 13 13 13 13 13 13 13 14 14 14 14 14 13 13 13 14 14 14 13 13 13 13 13 13 13 13 14 14 14 14 14 14 15 15 15 15 15 15 15 15 15 15 15 14 14 15 15 14
11 11 11 11 11 11 11 11 11 11 11 11 11 11 11 11 12 12 12 12 12 12 12 12 12 12 12 13 13 13 13 13 13 13 13 13 14 14 14 13 13 13 14 14 14 14 13 13 13 13 13 13 13 14 14 14 14 14 14 15 15 15 15 15 15 15 15 15 15 15 14 15 15 15
11 11 11 11 11 11 11 11 11 11 11 11 11 11 11 11 12 12 12 12 12 12 12 12 12 12 12 13 13 13 13 13 13 13 13 13 13 13 14 14 13 13 13 13 14 14 14 13 13 13 13 13 13 13 14 14 14 14 14 14 15 15 15 15 15 15 15 15 15 15 15 15 15 15
11 11 11 11 11 11 11 12 12 12 12 12 12 12 12 12 12 12 12 12 12 12 12 12 12 12 12 12 12 12 13 13 13 13 13 13 13 13 13 14 13 13 13 13 13 13 14 14 14 13 14 14 14 13 14 14 14 14 14 14 15 15 15 15 15 15 14 15 15 15 15 15 15 15
11 11 11 11 11 11 12 12 12 11 12 12 12 12 12 12 12 12 12 12 12 12 12 12 12 12 12 12 12 12 12 12 12 12 13 13 13 13 13 13 13 13 13 13 13 13 13 13 14 14 14 14 14 14 14 14 14 14 14 14 14 15 15 15 15 15 14 14 15 15 15 15 15 15
11 11 11 11 11 11 12 12 12 12 12 12 12 12 12 12 12 12 12 12 12 12 12 12 12 12 12 12 12 12 12 12 12 13 13 13 13 13 13 13 13 13 13 13 13 13 13 13 13 13 13 14 14 14 14 14 14 14 14 14 14 15 15 15 15 15 14 14 14 15 15 14 14 15
11 11 11 11 11 11 12 12 12 12 12 12 12 12 12 12 12 12 12 12 12 12 12 13 13 13 13 13 12 12 12 12 12 12 13 13 13 13 13 13 13 13 13 13 13 13 13 13 13 13 13 14 14 14 13 14 14 14 14 14 14 14 15 15 15 15 14 14 14 14 14 14 14 14
11 11 11 11 11 11 12 12 12 12 12 12 12 12 12 12 12 12 12 12 12 12 12 12 13 13 13 13 12 12 12 12 12 12 12 12 13 13 13 13 13 13 13 13 13 13 13 13 13 13 13 13 13 13 13 13 13 14 14 14 14 14 14 14 15 15 14 14 14 14 14 14 14 14
11 11 11 11 11 11 12 12 12 12 12 12 12 12 12 12 12 12 12 12 12 12 12 12 12 12 12 12 12 12 12 12 12 12 12 12 12 12 13 13 13 12 12 12 13 13 13 13 13 13 13 13 13 13 13 13 13 13 13 14 14 14 14 14 14 14 14 14 14 14 14 14 14 14
12 12 12 12 12 12 12 12 12 13 12 12 12 12 12 12 12 12 12 12 12 12 12 12 12 12 12 12 12 12 12 12 12 12 12 12 12 12 12 12 13 12 12 12 12 13 13 12 12 12 12 13 13 13 13 13 13 13 13 13 14 14 14 14 14 14 14 14 14 14 14 14 14 14
12 12 12 12 12 12 12 12 12 12 12 12 12 12 12 12 12 12 12 12 12 12 12 12 12 12 12 12 12 12 12 12 12 12 12 12 12 12 12 12 13 12 12 12 12 12 12 12 12 11 12 13 13 13 13 13 13 13 13 13 13 14 14 14 14 14 14 14 14 14 14 14 14 14
12 12 12 12 12 12 12 12 12 12 12 12 12 12 12 12 12 12 12 12 12 12 12 12 12 12 12 12 12 12 12 12 12 12 12 12 12 12 12 12 13 12 12 12 12 12 12 12 12 11 11 12 13 13 13 13 13 13 13 13 13 13 14 14 14 14 14 14 13 14 14 14 14 14
12 12 12 12 12 12 13 12 12 12 12 12 12 12 12 12 12 12 12 12 12 12 12 12 12 12 12 12 12 12 12 12 12 12 12 12 12 12 12 12 12 12 12 12 11 11 12 11 12 12 11 12 12 13 13 13 13 13 13 13 13 13 14 14 14 14 14 13 13 13 13 14 13 13
12 13 13 13 13 13 13 13 12 12 12 12 12 12 12 12 13 13 12 12 12 12 12 12 12 12 12 12 12 12 12 12 12 12 12 12 12 12 12 12 12 12 12 12 11 11 12 11 11 11 11 12 12 13 13 13 13 13 13 13 13 13 13 14 14 14 13 13 13 13 13 13 13 13
12 13 13 13 13 13 13 12 12 12 12 12 12 12 12 12 13 13 12 12 12 12 12 12 12 12 12 12 12 12 12 12 13 13 13 12 12 12 12 12 12 12 12 12 11 11 12 12 11 11 11 12 12 12 13 13 13 13 12 12 13 13 13 13 13 13 13 13 13 13 13 13 13 13
13 13 13 13 13 13 13 12 12 12 12 12 12 12 12 12 13 12 12 12 12 12 11 11 12 12 12 12 12 12 12 13 13 13 12 12 12 12 12 12 12 12 12 12 11 11 11 11 11 11 11 12 12 12 13 13 13 12 12 12 13 13 13 13 13 13 13 13 12 13 13 13 13 13
13 13 13 13 13 13 13 12 12 12 12 12 12 12 12 13 12 12 12 12 12 12 12 11 11 11 11 11 12 12 12 12 12 12 12 12 12 12 12 12 12 12 12 11 11 11 11 11 11 11 11 12 11 11 12 13 13 13 12 12 12 13 13 13 13 13 13 12 12 12 12 12 12 12
13 13 13 13 13 13 13 13 12 12 12 12 12 12 13 13 12 12 12 12 12 12 12 12 12 12 12 12 12 12 12 12 12 12 12 11 11 12 12 12 12 12 12 11 11 11 11 11 11 11 11 12 11 11 12 12 13 13 13 12 12 12 13 13 13 13 13 12 12 12 12 12 12 12
13 12 13 13 13 13 13 13 13 12 12 12 12 12 13 12 12 12 12 12 12 13 13 13 13 13 12 12 13 13 13 12 12 11 11 11 11 12 12 12 12 12 12 12 11 11 11 11 11 11 11 11 11 12 12 11 12 13 14 13 12 12 12 13 13 13 12 12 12 12 12 12 12 12
12 12 12 12 13 13 13 13 13 13 13 12 12 12 12 13 13 13 13 13 13 13 13 13 13 13 13 13 13 13 12 12 12 11 11 11 11 12 12 12 12 12 11 11 11 11 11 11 11 11 11 12 12 12 12 11 11 12 13 13 12 12 12 13 13 12 12 12 12 12 12 12 12 12
12 12 12 13 13 13 13 13 13 13 13 13 12 12 13 13 13 13 14 14 14 14 14 14 14 13 13 13 13 13 12 12 12 12 12 11 11 12 12 12 12 12 12 11 11 11 11 11 11 11 11 12 12 12 12 11 11 12 13 13 13 12 13 13 13 12 12 12 12 12 12 12 12 12
12 12 12 12 12 13 13 13 13 13 13 13 13 13 13 13 13 14 14 14 14 14 14 14 14 14 13 13 13 13 13 12 12 12 12 12 12 12 12 12 12 12 12 12 11 11 11 11 12 12 12 12 12 12 12 12 12 12 12 13 13 13 13 13 13 12 12 12 12 12 12 12 12 12
12 12 12 12 12 12 13 13 13 13 13 13 13 13 13 13 13 14 14 14 14 14 14 14 14 14 13 13 13 13 13 13 12 12 12 12 12 12 12 12 12 12 12 12 12 12 12 12 12 12 12 12 12 12 12 12 12 12 12 13 13 13 13 13 13 12 12 12 12 12 12 12 12 12
11 12 12 12 13 12 12 13 13 13 13 13 13 13 13 13 13 13 14 14 14 14 14 14 14 14 13 13 13 13 13 13 13 12 12 12 12 11 11 12 12 12 12 12 12 12 12 12 11 12 12 12 12 12 12 12 12 12 12 13 13 12 13 13 13 13 12 12 12 12 12 12 12 12
11 12 12 13 13 13 13 13 13 13 13 13 13 13 13 13 14 14 14 14 14 14 14 14 14 14 13 13 13 13 13 13 12 12 12 12 12 11 11 11 11 12 12 12 12 12 12 12 11 11 11 11 12 12 12 12 12 12 12 12 13 13 13 13 13 13 12 11 12 12 12 12 12 12
12 13 13 13 14 14 13 13 13 13 13 13 14 14 14 14 14 14 14 14 14 14 14 14 14 14 14 13 13 13 13 13 12 12 12 12 12 11 11 11 11 11 12 12 12 11 11 12 12 11 11 11 11 12 12 12 12 12 12 12 13 13 13 12 13 13 12 11 11 11 11 11 11 11
13 13 13 13 14 14 13 13 13 14 14 14 14 14 14 14 14 15 15 15 14 14 14 14 14 14 14 14 13 13 13 13 13 12 12 12 11 11 11 11 11 11 11 11 11 11 11 11 12 12 11 11 11 12 12 12 12 12 12 12 12 13 13 12 12 12 12 11 11 11 11 11 11 11
13 13 13 13 14 14 14 14 14 14 14 14 15 15 14 14 14 15 15 15 15 15 15 14 14 14 14 14 13 13 13 13 13 12 12 12 11 11 11 11 11 11 11 11 11 11 11 11 12 12 12 11 11 12 12 12 11 11 11 12 12 12 12 12 12 12 12 11 11 11 11 11 11 11
13 14 14 14 14 14 14 14 14 14 14 14 14 15 15 14 14 14 15 15 15 15 15 15 15 15 14 14 14 14 13 13 13 13 12 12 12 12 12 11 11 11 11 11 11 11 11 11 12 12 12 12 12 12 12 11 11 11 11 11 12 12 12 12 12 12 12 11 10 10 10 10 10 11
13 13 14 14 14 14 14 14 14 14 14 14 14 14 14 14 14 14 14 15 15 15 15 15 15 15 15 14 14 14 13 13 13 13 13 12 12 12 12 11 11 11 11 11 11 11 11 11 11 12 12 12 12 11 11 11 11 12 11 11 11 12 12 12 12 12 12 11 11 10 10 9 10 10
13 13 13 13 13 14 14 14 14 14 14 14 14 14 14 14 14 14 14 14 14 14 15 15 15 15 15 14 13 13 13 12 12 13 13 12 12 12 12 12 12 12 11 11 11 11 11 11 11 12 12 12 11 11 11 11 11 12 12 11 11 12 12 12 12 12 12 11 11 11 10 10 10 10
12 13 13 13 13 13 13 13 14 14 14 14 14 14 14 13 13 13 13 13 13 13 14 14 14 14 14 13 12 11 11 12 12 12 12 13 13 12 12 12 12 12 12 12 12 11 11 12 12 12 12 11 11 11 11 11 11 11 11 11 11 11 11 11 11 11 11 11 11 11 11 10 10 10
13 13 13 13 13 13 13 13 13 14 14 14 14 14 14 13 13 13 13 13 13 13 13 13 13 13 12 11 11 10 11 11 11 12 12 13 13 12 12 12 12 12 12 12 12 12 12 12 12 12 11 11 11 11 12 11 11 11 11 11 11 11 11 11 11 11 11 11 10 10 10 10 10 10
13 13 13 13 13 13 13 13 13 13 14 14 14 14 13 13 13 13 13 13 12 13 13 13 12 12 11 10 10 11 12 12 12 12 12 12 12 12 12 12 12 12 12 12 12 12 12 12 12 12 12 11 11 11 12 12 11 11 10 11 11 10 10 10 10 10 10 10 10 10 10 10 10 10
12 13 13 12 12 12 13 13 13 13 13 13 13 13 13 13 13 13 13 13 12 12 13 13 12 11 10 10 11 12 13 13 13 12 12 12 12 12 12 13 13 12 12 12 12 12 12 12 12 12 12 12 12 12 12 12 11 11 11 10 11 10 10 10 10 10 10 10 9 9 9 9 9 9
12 13 13 13 13 13 13 13 13 13 13 13 13 12 12 12 13 13 13 12 12 12 12 12 11 10 10 11 12 12 13 13 13 12 12 12 13 13 13 13 13 13 12 12 12 12 12 12 12 12 12 12 12 12 12 12 11 11 10 10 10 11 10 10 10 10 9 9 9 9 8 8 8 8
13 13 13 13 13 13 13 12 12 12 12 12 12 12 12 12 12 12 11 11 11 11 11 10 10 10 11 12 12 12 12 12 12 13 12 12 12 12 12 12 13 13 13 12 12 12 12 12 12 12 12 12 12 12 12 12 11 11 10 10 10 11 10 10 9 9 9 9 9 9 8 8 7 7
Height
3258 3259 3260 3260 3261 3261 3262 3262 3263 3264 3265 3265 3266 3267 3267 3268 3269 3269 3270 3270 3270 3271 3271 3271 3271 3271 3271 3271 3270 3270 3270 3269 3269 3268 3267 3267 3266 3265 3264 3263 3262 3260 3259 3258 3256 3254 3253 3251 3249 3248 3246 3244 3241 3239 3236 3234 3231 3228 3226 3223 3221 3218 3216 3214 3211 3208 3205 3202 3200 3197 3194 3191 3188 3186
3258 3259 3259 3260 3261 3261 3262 3262 3263 3264 3264 3265 3266 3266 3267 3268 3268 3269 3269 3270 3270 3270 3270 3270 3270 3270 3270 3270 3270 3270 3270 3270 3269 3268 3267 3266 3266 3266 3265 3263 3262 3261 3259 3258 3256 3255 3253 3251 3250 3248 3246 3244 3242 3240 3237 3235 3232 3229 3227 3224 3221 3219 3216 3214 3211 3209 3206 3203 3200 3198 3195 3192 3190 3187
3258 3259 3259 3260 3260 3261 3261 3262 3263 3263 3264 3265 3265 3266 3267 3267 3268 3268 3269 3269 3270 3270 3270 3270 3270 3270 3270 3270 3270 3270 3269 3269 3269 3268 3267 3266 3265 3265 3265 3264 3262 3261 3259 3258 3256 3255 3253 3252 3250 3248 3246 3245 3243 3240 3238 3235 3233 3230 3228 3225 3222 3219 3217 3215 3212 3209 3207 3204 3201 3199 3196 3193 3191 3188
3258 3259 3259 3260 3260 3260 3261 3261 3262 3263 3263 3264 3265 3265 3266 3266 3267 3267 3268 3269 3269 3269 3269 3269 3269 3269 3269 3269 3270 3270 3269 3269 3269 3268 3267 3266 3265 3264 3264 3264 3262 3260 3259 3257 3256 3255 3253 3251 3250 3248 3246 3245 3243 3241 3238 3236 3234 3231 3228 3226 3223 3220 3218 3215 3213 3210 3207 3205 3202 3200 3197 3194 3192 3189
3258 3258 3259 3259 3260 3260 3261 3261 3261 3262 3263 3263 3264 3265 3265 3266 3266 3266 3267 3268 3268 3268 3269 3269 3269 3269 3269 3269 3269 3269 3269 3268 3268 3267 3267 3266 3265 3263 3262 3262 3262 3260 3258 3257 3256 3254 3253 3251 3249 3248 3246 3244 3243 3241 3239 3237 3235 3232 3229 3227 3224 3221 3218 3216 3213 3211 3208 3206 3203 3201 3198 3195 3192 3190
3258 3258 3258 3259 3259 3260 3260 3260 3261 3261 3262 3262 3263 3264 3264 3265 3265 3266 3266 3266 3267 3267 3267 3268 3268 3268 3268 3268 3268 3268 3268 3267 3267 3266 3266 3265 3265 3263 3261 3260 3260 3260 3258 3257 3256 3254 3252 3251 3249 3247 3246 3244 3243 3241 3239 3237 3235 3233 3230 3227 3225 3222 3219 3217 3214 3212 3209 3207 3204 3201 3199 3196 3193 3191
3257 3257 3258 3258 3259 3259 3260 3260 3260 3261 3261 3261 3262 3263 3263 3264 3265 3265 3265 3265 3266 3266 3266 3266 3266 3266 3267 3267 3266 3266 3266 3266 3265 3265 3265 3264 3263 3263 3261 3258 3258 3258 3257 3256 3255 3253 3252 3250 3249 3247 3245 3244 3242 3241 3239 3237 3235 3233 3230 3228 3225 3223 3220 3218 3215 3212 3210 3207 3205 3202 3200 3197 3194 3192
3256 3256 3257 3258 3258 3259 3259 3259 3260 3260 3260 3261 3261 3262 3262 3263 3263 3264 3264 3264 3265 3265 3265 3265 3265 3265 3265 3265 3265 3265 3264 3264 3264 3263 3263 3263 3262 3262 3260 3257 3257 3257 3256 3255 3254 3253 3252 3250 3248 3247 3245 3244 3242 3240 3239 3237 3235 3233 3231 3228 3226 3223 3221 3218 3216 3213 3211 3208 3206 3203 3201 3198 3195 3193
3255 3255 3256 3256 3257 3258 3258 3258 3259 3259 3260 3260 3260 3261 3261 3262 3262 3262 3263 3263 3263 3263 3264 3264 3264 3263 3263 3263 3263 3263 3262 3262 3261 3261 3261 3261 3260 3260 3259 3257 3255 3255 3255 3254 3253 3252 3251 3249 3248 3246 3244 3243 3241 3239 3238 3236 3235 3233 3231 3229 3226 3224 3221 3219 3216 3214 3211 3209 3207 3204 3202 3199 3196 3194
3253 3254 3254 3255 3255 3256 3257 3257 3258 3258 3259 3259 3260 3260 3260 3261 3261 3261 3261 3262 3262 3262 3262 3262 3262 3262 3261 3261 3261 3261 3261 3260 3259 3259 3258 3258 3258 3258 3258 3256 3253 3252 3251 3252 3252 3251 3249 3248 3247 3245 3244 3242 3241 3239 3237 3236 3234 3232 3231 3229 3226 3224 3221 3219 3217 3214 3212 3210 3207 3205 3203 3200 3198 3195
3252 3252 3253 3253 3254 3254 3255 3255 3256 3257 3257 3258 3258 3259 3259 3260 3260 3260 3260 3260 3260 3260 3260 3260 3260 3260 3259 3259 3259 3259 3258 3258 3258 3257 3256 3255 3255 3255 3254 3254 3253 3251 3248 3247 3248 3248 3248 3246 3245 3244 3242 3241 3240 3238 3237 3235 3233 3232 3230 3228 3226 3224 3222 3219 3217 3215 3212 3210 3208 3206 3203 3201 3199 3196
3250 3250 3251 3251 3252 3252 3253 3253 3254 3255 3255 3256 3257 3257 3258 3258 3258 3258 3258 3258 3258 3259 3259 3258 3258 3258 3257 3257 3257 3257 3256 3255 3255 3254 3253 3253 3253 3252 3252 3252 3252 3251 3249 3246 3244 3243 3244 3243 3243 3242 3241 3240 3239 3237 3235 3234 3233 3231 3230 3228 3226 3224 3222 3219 3217 3215 3212 3210 3208 3206 3204 3202 3199 3197
3247 3248 3249 3249 3250 3250 3250 3251 3252 3253 3253 3254 3255 3255 3255 3256 3256 3256 3256 3256 3256 3256 3256 3256 3256 3256 3255 3255 3255 3254 3254 3253 3252 3251 3251 3250 3250 3249 3249 3249 3248 3248 3247 3246 3244 3242 3240 3239 3239 3239 3238 3237 3238 3236 3234 3233 3232 3230 3228 3227 3225 3223 3221 3219 3217 3215 3212 3210 3208 3206 3204 3202 3200 3198
3245 3246 3247 3247 3248 3248 3248 3249 3250 3251 3251 3252 3252 3253 3253 3253 3254 3254 3254 3254 3254 3254 3254 3254 3254 3253 3253 3253 3252 3252 3251 3250 3249 3248 3248 3247 3247 3246 3245 3245 3245 3244 3243 3243 3243 3241 3240 3238 3236 3235 3234 3233 3233 3233 3231 3230 3229 3228 3227 3226 3224 3222 3221 3219 3217 3215 3212 3210 3208 3206 3204 3202 3200 3198
3243 3244 3244 3245 3245 3245 3246 3247 3248 3248 3249 3250 3250 3251 3251 3251 3251 3251 3252 3252 3251 3251 3251 3251 3251 3251 3251 3250 3250 3249 3249 3247 3246 3246 3245 3244 3244 3243 3242 3242 3242 3241 3240 3239 3239 3239 3238 3236 3235 3234 3232 3230 3230 3230 3229 3228 3227 3226 3225 3224 3223 3221 3220 3218 3216 3214 3212 3210 3208 3206 3204 3202 3200 3198
3241 3242 3242 3243 3243 3243 3243 3244 3245 3246 3247 3247 3248 3248 3248 3248 3248 3249 3249 3249 3249 3249 3248 3248 3248 3248 3248 3248 3247 3247 3246 3245 3244 3243 3242 3241 3240 3240 3239 3239 3238 3238 3236 3235 3234 3235 3235 3233 3232 3231 3230 3229 3229 3228 3227 3226 3225 3224 3224 3223 3221 3220 3218 3217 3215 3213 3211 3209 3207 3205 3203 3202 3200 3198
3238 3239 3240 3240 3241 3241 3241 3242 3242 3243 3244 3245 3245 3245 3245 3245 3246 3246 3246 3246 3246 3246 3245 3244 3245 3245 3245 3244 3245 3244 3243 3242 3242 3241 3240 3239 3238 3237 3236 3235 3236 3235 3234 3232 3230 3230 3231 3230 3228 3228 3227 3226 3227 3227 3225 3224 3223 3222 3222 3221 3220 3218 3217 3215 3214 3212 3210 3208 3207 3205 3203 3201 3200 3198
3235 3235 3236 3237 3238 3239 3239 3239 3240 3240 3241 3242 3242 3242 3242 3242 3243 3243 3243 3243 3243 3243 3242 3242 3242 3242 3242 3241 3241 3241 3240 3239 3239 3238 3237 3237 3235 3234 3234 3233 3233 3233 3232 3230 3227 3227 3228 3227 3225 3225 3223 3222 3225 3225 3223 3222 3221 3220 3220 3219 3218 3217 3215 3214 3212 3210 3209 3207 3206 3204 3202 3201 3199 3197
3231 3232 3233 3234 3234 3235 3236 3237 3237 3238 3238 3238 3239 3239 3239 3239 3239 3239 3239 3240 3240 3239 3239 3238 3239 3239 3239 3238 3238 3238 3237 3236 3236 3235 3234 3234 3233 3232 3231 3231 3231 3230 3229 3228 3225 3225 3226 3224 3223 3222 3219 3218 3220 3222 3221 3221 3220 3218 3217 3217 3215 3214 3213 3212 3210 3209 3207 3206 3205 3203 3202 3200 3199 3197
3228 3229 3229 3230 3231 3232 3233 3234 3235 3235 3235 3235 3235 3235 3235 3236 3236 3236 3236 3236 3237 3237 3236 3235 3235 3235 3235 3235 3234 3234 3234 3233 3233 3232 3231 3230 3230 3229 3228 3228 3228 3228 3227 3226 3223 3221 3223 3222 3221 3221 3218 3215 3215 3217 3218 3219 3217 3216 3215 3214 3213 3212 3211 3210 3208 3207 3206 3205 3203 3202 3201 3199 3198 3196
3224 3225 3226 3227 3228 3228 3229 3230 3231 3232 3232 3232 3232 3232 3232 3232 3232 3233 3233 3232 3232 3233 3233 3232 3231 3231 3232 3231 3231 3231 3230 3230 3230 3229 3228 3228 3228 3226 3225 3224 3225 3224 3225 3225 3223 3219 3219 3220 3219 3218 3217 3214 3212 3212 3214 3216 3215 3213 3212 3211 3210 3210 3209 3208 3207 3205 3204 3203 3202 3201 3200 3198 3197 3196
3221 3221 3223 3224 3224 3225 3226 3227 3228 3228 3229 3229 3229 3229 3228 3228 3229 3229 3230 3230 3229 3228 3228 3228 3228 3227 3228 3228 3227 3227 3227 3227 3227 3226 3226 3226 3226 3224 3223 3222 3221 3220 3221 3222 3222 3219 3218 3218 3216 3215 3215 3214 3211 3209 3210 3212 3212 3210 3209 3208 3207 3207 3206 3205 3204 3203 3202 3201 3200 3199 3198 3197 3196 3195
3217 3218 3219 3220 3221 3221 3223 3223 3224 3224 3225 3225 3225 3225 3225 3224 3225 3226 3227 3227 3226 3225 3224 3224 3224 3224 3224 3224 3224 3224 3224 3223 3223 3223 3224 3224 3223 3221 3220 3220 3219 3217 3218 3219 3218 3216 3216 3216 3214 3213 3212 3211 3210 3207 3207 3208 3208 3207 3206 3205 3204 3204 3203 3203 3202 3201 3200 3199 3198 3197 3196 3195 3195 3194
3214 3215 3216 3217 3218 3218 3219 3220 3220 3220 3221 3221 3222 3222 3221 3221 3222 3223 3223 3223 3223 3222 3221 3221 3220 3220 3220 3220 3220 3221 3221 3221 3220 3220 3220 3220 3219 3218 3217 3217 3216 3215 3215 3216 3215 3213 3213 3213 3212 3211 3209 3208 3207 3205 3204 3205 3205 3205 3204 3203 3202 3202 3201 3200 3200 3199 3198 3197 3196 3195 3195 3194 3193 3192
3211 3211 3212 3213 3214 3215 3216 3217 3217 3216 3216 3217 3217 3217 3217 3218 3219 3219 3219 3219 3219 3218 3218 3218 3217 3216 3216 3217 3217 3218 3218 3218 3218 3217 3217 3217 3216 3215 3214 3214 3213 3212 3212 3212 3211 3210 3210 3210 3210 3209 3207 3206 3206 3204 3201 3200 3201 3202 3202 3201 3200 3199 3199 3198 3198 3197 3196 3195 3194 3193 3193 3192 3191 3190
3208 3209 3209 3210 3210 3211 3212 3213 3213 3213 3212 3212 3212 3213 3214 3215 3215 3214 3214 3214 3214 3214 3214 3214 3214 3213 3213 3214 3214 3215 3215 3215 3215 3214 3214 3213 3213 3212 3212 3211 3210 3210 3210 3209 3208 3207 3207 3207 3207 3207 3205 3204 3203 3202 3200 3197 3196 3197 3199 3199 3197 3196 3196 3195 3195 3194 3193 3193 3192 3191 3191 3190 3189 3188
3205 3206 3206 3207 3207 3207 3208 3209 3209 3209 3209 3209 3209 3210 3210 3210 3210 3210 3209 3209 3209 3209 3210 3210 3209 3210 3210 3211 3211 3212 3212 3212 3212 3211 3210 3209 3209 3209 3209 3209 3208 3207 3207 3206 3205 3205 3204 3203 3203 3203 3202 3201 3200 3199 3199 3197 3194 3192 3195 3196 3195 3194 3193 3193 3192 3191 3191 3190 3190 3189 3189 3188 3187 3186
3202 3202 3203 3203 3203 3204 3204 3205 3206 3206 3206 3206 3206 3206 3207 3206 3206 3205 3204 3204 3205 3205 3205 3206 3206 3207 3207 3208 3208 3208 3208 3208 3208 3208 3207 3206 3205 3205 3205 3205 3205 3204 3204 3203 3201 3201 3200 3200 3200 3200 3199 3198 3197 3196 3196 3197 3194 3190 3190 3192 3193 3192 3191 3190 3189 3189 3188 3188 3187 3187 3186 3185 3185 3184
3198 3198 3199 3199 3200 3200 3201 3201 3202 3202 3203 3203 3203 3203 3203 3202 3201 3200 3200 3200 3200 3201 3201 3202 3202 3203 3204 3204 3204 3204 3205 3204 3204 3204 3204 3203 3202 3201 3200 3200 3199 3199 3199 3199 3199 3198 3197 3196 3196 3196 3196 3195 3195 3194 3193 3193 3192 3189 3187 3188 3189 3189 3188 3188 3187 3186 3186 3185 3185 3184 3184 3183 3182 3181
3194 3194 3194 3195 3195 3196 3196 3197 3197 3198 3199 3200 3200 3199 3199 3198 3197 3197 3197 3197 3197 3197 3198 3198 3199 3199 3199 3200 3200 3200 3200 3200 3200 3200 3200 3199 3199 3198 3197 3196 3195 3194 3194 3194 3194 3194 3193 3193 3192 3192 3193 3192 3191 3191 3190 3189 3189 3187 3184 3184 3186 3185 3185 3185 3184 3183 3183 3183 3182 3181 3181 3180 3180 3179
3189 3189 3189 3190 3191 3191 3191 3192 3193 3194 3195 3195 3195 3195 3195 3194 3194 3194 3194 3194 3194 3194 3194 3195 3195 3196 3195 3195 3195 3195 3195 3196 3196 3196 3195 3195 3194 3194 3193 3192 3191 3191 3190 3190 3190 3189 3189 3189 3189 3188 3189 3188 3188 3187 3187 3185 3185 3184 3181 3180 3182 3182 3181 3182 3182 3181 3180 3180 3179 3178 3177 3177 3176 3176
3185 3185 3185 3186 3186 3186 3186 3188 3189 3190 3191 3191 3191 3191 3191 3191 3191 3190 3190 3190 3189 3189 3190 3191 3191 3191 3191 3191 3191 3191 3191 3191 3191 3191 3191 3190 3190 3190 3189 3187 3187 3187 3187 3186 3186 3185 3184 3184 3184 3184 3184 3184 3184 3183 3183 3181 3181 3181 3179 3177 3178 3178 3177 3177 3178 3177 3177 3176 3175 3175 3174 3173 3173 3172
3180 3180 3181 3182 3182 3182 3183 3184 3184 3185 3186 3187 3187 3187 3187 3187 3187 3186 3186 3185 3185 3185 3186 3186 3186 3187 3187 3186 3186 3186 3186 3186 3187 3187 3186 3185 3185 3185 3184 3183 3182 3183 3183 3182 3182 3181 3180 3180 3180 3180 3179 3180 3179 3179 3178 3177 3177 3177 3176 3174 3174 3174 3173 3172 3172 3173 3173 3173 3171 3171 3171 3170 3169 3168
3176 3176 3176 3177 3179 3179 3179 3180 3180 3181 3182 3182 3182 3182 3183 3182 3182 3181 3181 3181 3181 3181 3181 3181 3181 3182 3182 3181 3181 3181 3181 3181 3182 3182 3181 3181 3180 3180 3179 3179 3178 3178 3178 3178 3178 3177 3175 3175 3176 3175 3175 3175 3175 3174 3174 3173 3173 3173 3172 3170 3170 3170 3169 3168 3167 3168 3170 3169 3168 3167 3167 3166 3165 3164
3171 3172 3172 3173 3174 3175 3175 3175 3176 3177 3177 3178 3178 3177 3177 3178 3177 3177 3177 3177 3176 3176 3176 3176 3176 3176 3176 3176 3175 3175 3175 3176 3176 3177 3176 3176 3175 3175 3175 3174 3174 3174 3174 3174 3174 3173 3171 3169 3170 3170 3170 3170 3170 3169 3169 3169 3169 3168 3167 3166 3165 3165 3165 3165 3164 3164 3165 3165 3163 3163 3162 3162 3161 3161
3167 3168 3169 3169 3170 3170 3170 3171 3172 3172 3173 3174 3173 3173 3173 3174 3173 3172 3172 3172 3172 3171 3170 3170 3170 3170 3170 3170 3169 3169 3169 3170 3170 3171 3171 3171 3170 3170 3170 3170 3169 3170 3170 3169 3169 3169 3168 3165 3164 3165 3165 3165 3164 3164 3165 3166 3165 3163 3162 3161 3161 3160 3160 3160 3160 3160 3160 3160 3159 3158 3158 3157 3156 3156
3163 3164 3165 3165 3165 3165 3166 3167 3167 3168 3168 3169 3169 3168 3169 3169 3169 3168 3167 3167 3166 3166 3165 3164 3163 3163 3163 3163 3162 3163 3163 3163 3164 3165 3165 3166 3165 3165 3165 3165 3165 3165 3165 3165 3165 3165 3164 3161 3158 3159 3160 3159 3159 3159 3160 3161 3160 3159 3158 3156 3155 3155 3155 3155 3154 3155 3155 3155 3154 3154 3153 3153 3151 3150
3159 3160 3161 3162 3161 3161 3162 3162 3162 3163 3163 3164 3164 3164 3164 3164 3164 3164 3163 3162 3161 3161 3160 3158 3157 3157 3156 3155 3155 3156 3156 3157 3157 3158 3159 3160 3160 3160 3160 3160 3160 3160 3160 3160 3159 3159 3159 3157 3154 3153 3154 3155 3154 3154 3154 3154 3153 3153 3153 3152 3150 3150 3150 3150 3149 3149 3150 3150 3149 3148 3148 3148 3147 3145
3153 3154 3156 3157 3158 3157 3157 3157 3158 3158 3158 3159 3159 3159 3159 3159 3159 3159 3159 3158 3157 3155 3154 3153 3151 3150 3149 3149 3149 3149 3150 3151 3152 3153 3154 3155 3155 3155 3155 3155 3155 3155 3155 3154 3154 3154 3153 3152 3150 3149 3150 3150 3150 3150 3150 3148 3146 3146 3148 3147 3145 3145 3145 3145 3145 3144 3144 3144 3143 3143 3142 3142 3142 3140
3148 3149 3150 3151 3152 3152 3152 3152 3153 3153 3153 3154 3154 3154 3154 3154 3153 3153 3154 3152 3151 3150 3149 3147 3145 3144 3143 3142 3143 3144 3145 3146 3147 3148 3149 3149 3150 3150 3150 3150 3150 3150 3149 3149 3148 3148 3147 3147 3146 3146 3146 3146 3145 3145 3145 3144 3142 3141 3142 3142 3141 3139 3139 3140 3139 3139 3139 3139 3138 3137 3136 3136 3136 3135
3143 3143 3144 3145 3146 3147 3147 3147 3148 3148 3148 3149 3149 3149 3149 3148 3147 3148 3147 3146 3146 3145 3143 3140 3139 3137 3135 3136 3139 3142 3143 3144 3144 3145 3145 3145 3145 3145 3145 3145 3145 3144 3143 3143 3143 3143 3143 3143 3142 3141 3141 3140 3140 3139 3138 3138 3137 3136 3136 3137 3136 3135 3133 3133 3133 3134 3134 3133 3133 3132 3131 3130 3129 3129
3138 3138 3139 3139 3140 3141 3142 3143 3142 3142 3142 3143 3143 3144 3143 3142 3142 3142 3141 3140 3140 3138 3136 3134 3131 3127 3127 3133 3139 3142 3142 3141 3140 3140 3141 3140 3140 3139 3139 3138 3138 3139 3138 3138 3138 3138 3138 3138 3137 3136 3135 3135 3134 3134 3133 3132 3132 3131 3130 3130 3131 3131 3128 3127 3127 3128 3128 3127 3127 3126 3125 3124 3123 3122
3132 3133 3134 3134 3135 3136 3137 3137 3137 3137 3137 3137 3137 3137 3136 3135 3135 3135 3134 3134 3133 3131 3129 3127 3122 3119 3124 3133 3137 3137 3136 3136 3136 3136 3136 3136 3135 3134 3133 3133 3133 3134 3134 3133 3133 3134 3134 3132 3131 3130 3129 3128 3128 3128 3128 3127 3127 3125 3123 3123 3124 3125 3124 3122 3121 3121 3121 3121 3121 3120 3119 3118 3117 3115
3126 3127 3128 3129 3130 3131 3131 3131 3131 3131 3131 3131 3131 3131 3130 3129 3128 3128 3127 3126 3124 3123 3122 3118 3113 3116 3124 3130 3130 3129 3130 3132 3132 3132 3132 3131 3130 3129 3129 3129 3128 3128 3128 3127 3127 3128 3128 3127 3126 3124 3122 3121 3121 3122 3122 3121 3120 3119 3118 3116 3116 3118 3119 3118 3115 3114 3114 3115 3116 3115 3113 3112 3111 3110
3121 3122 3123 3124 3125 3125 3124 3124 3125 3125 3126 3125 3125 3124 3123 3122 3120 3119 3119 3118 3117 3118 3117 3111 3109 3115 3122 3122 3121 3123 3125 3125 3125 3125 3125 3125 3125 3124 3123 3123 3122 3121 3122 3121 3121 3121 3121 3120 3118 3117 3116 3115 3114 3115 3115 3115 3113 3112 3111 3110 3109 3110 3111 3112 3110 3108 3108 3110 3111 3109 3107 3105 3104 3104
Wind_Speed
8 8 7 6 7 7 8 8 9 10 11 12 12 13 15 15 14 12 10 10 9 8 8 8 6 4 4 6 7 8 9 11 12 14 15 15 15 16 16 16 16 16 17 18 21 22 23 24 26 27 28 29 30 31 31 31 31 31 30 28 27 27 28 29 31 34 36 38 39 38 35 34 32 30
8 8 7 7 7 7 8 9 9 11 12 12 12 13 15 15 15 14 12 11 10 8 8 8 7 6 7 7 8 9 9 10 12 14 15 16 15 15 15 16 16 16 17 17 19 21 22 23 24 25 27 28 29 30 31 31 31 32 32 30 28 27 27 29 31 33 35 37 38 37 35 34 33 31
8 8 7 7 7 7 8 9 10 10 11 13 12 12 14 15 16 16 14 12 11 10 10 9 9 9 10 9 10 11 10 10 11 13 15 16 16 14 13 15 16 17 17 17 19 20 21 22 23 24 25 26 28 29 30 31 31 32 32 32 30 28 28 28 30 32 34 36 37 37 36 34 33 32
7 7 7 7 7 7 7 8 9 10 10 11 12 13 14 14 15 16 16 15 14 13 12 11 11 12 12 11 11 12 12 11 12 13 14 15 18 17 14 14 17 18 18 18 19 20 20 21 22 23 24 25 26 27 29 30 31 31 32 32 31 30 28 28 29 31 32 34 36 36 36 34 33 33
7 7 7 7 7 7 7 7 8 9 10 10 12 13 13 14 15 16 16 16 16 15 15 14 14 14 14 14 13 13 14 14 14 15 16 16 18 20 19 17 18 19 19 19 20 20 21 21 22 23 23 24 25 26 27 29 30 30 31 32 32 31 29 28 29 30 31 33 34 35 35 34 33 32
7 7 7 7 7 7 8 8 8 8 9 10 11 12 13 14 15 16 16 17 17 17 17 16 16 17 16 16 16 15 16 16 17 17 18 18 18 20 22 21 19 19 20 20 20 21 21 22 22 22 24 24 24 25 26 27 28 29 30 31 31 31 30 29 29 29 30 31 33 34 34 34 33 32
8 8 7 7 8 8 8 8 8 9 9 10 11 12 13 14 15 16 16 16 17 18 18 18 19 19 19 18 19 19 19 19 19 19 19 20 21 20 23 24 22 20 20 20 21 21 22 23 23 23 24 24 24 24 25 26 27 28 29 29 30 31 31 30 29 29 29 30 32 33 33 33 32 31
10 9 9 8 8 9 9 9 9 9 10 10 11 12 13 14 15 16 17 17 18 19 19 20 20 21 21 21 21 21 22 22 22 22 21 22 22 22 23 25 24 22 21 21 21 21 22 23 23 24 24 24 24 24 23 24 25 27 27 28 29 30 31 30 30 29 29 29 30 31 32 32 32 31
11 11 10 10 10 10 10 10 10 10 10 11 11 12 13 13 14 16 17 18 19 19 20 20 21 22 23 23 24 24 24 25 25 25 25 24 24 23 23 25 26 25 23 22 21 21 21 21 21 23 24 25 24 24 23 23 24 25 27 27 28 28 29 30 30 29 29 28 29 30 31 31 31 30
12 12 12 12 12 12 11 12 11 11 12 12 12 12 13 13 14 15 16 17 18 19 20 21 21 23 24 24 25 25 26 27 27 28 28 28 28 27 25 25 27 28 26 24 22 21 21 20 20 22 23 24 25 24 24 23 23 24 26 27 27 27 28 29 29 29 29 28 28 28 30 31 31 30
14 14 14 13 14 13 13 13 13 13 14 13 13 13 14 14 14 15 16 17 17 18 19 20 21 22 24 24 25 26 27 27 27 28 29 29 29 29 28 26 26 27 28 29 27 23 22 22 22 23 22 22 24 24 24 23 23 23 24 25 26 26 27 28 29 29 28 28 27 27 28 29 30 30
16 16 15 15 15 15 15 15 14 15 15 15 15 15 15 15 15 16 17 18 18 18 19 20 20 22 23 23 24 25 26 26 26 27 28 29 29 28 28 28 26 25 26 28 30 28 26 24 24 23 22 21 21 23 23 22 22 22 22 23 25 25 26 27 28 28 28 27 27 26 27 28 29 29
19 18 18 18 18 18 18 17 16 16 17 16 16 17 17 17 17 18 19 19 19 20 20 20 21 22 23 23 24 24 25 26 26 27 27 28 28 28 28 27 27 26 26 26 27 29 29 29 27 26 25 23 21 22 24 23 22 21 21 22 23 24 25 26 27 27 27 26 26 25 25 26 27 28
22 21 21 20 21 21 21 19 17 18 18 18 18 18 19 19 19 20 20 20 21 21 21 21 22 23 23 23 24 25 25 26 27 27 27 27 27 28 29 28 27 27 27 26 26 26 27 29 30 30 30 28 24 23 25 24 22 22 21 21 22 23 25 26 26 27 27 26 25 24 24 25 25 26
24 24 24 23 24 24 23 22 20 20 20 20 20 19 20 21 21 21 21 21 22 22 23 23 23 23 24 24 24 24 25 26 27 28 28 28 28 28 29 29 27 27 27 27 26 26 26 28 29 29 31 31 27 25 25 25 24 22 22 21 21 22 24 25 25 26 26 25 24 23 23 23 24 25
26 26 26 26 26 26 26 24 23 22 21 21 21 21 21 22 22 22 22 22 22 23 24 24 24 23 23 23 23 24 25 26 26 27 28 28 29 29 28 28 26 25 27 28 27 26 25 26 27 27 28 28 25 23 23 24 24 23 22 21 21 21 23 24 25 25 26 25 24 23 23 23 23 23
27 27 27 27 27 27 27 27 25 23 22 22 22 22 23 23 23 23 23 23 23 23 25 25 24 23 24 24 23 23 25 26 26 26 26 27 28 29 28 28 26 24 25 27 28 26 24 25 26 25 26 25 23 23 23 24 24 23 22 21 21 21 22 23 24 25 25 25 23 22 22 22 22 22
28 28 28 27 27 27 27 27 27 24 22 22 22 23 24 24 24 24 24 24 24 24 25 26 26 24 25 26 25 24 25 26 26 26 26 27 28 29 28 28 27 25 24 26 28 27 23 23 23 23 26 26 22 22 24 24 24 24 23 22 21 21 21 21 22 24 25 25 23 22 22 21 21 21
29 28 28 27 27 26 26 26 26 25 24 23 23 24 25 25 25 25 25 25 25 26 27 27 27 26 26 27 27 26 27 27 27 27 28 28 28 29 29 28 26 26 25 25 27 26 21 20 21 22 26 28 24 22 22 22 23 24 23 22 22 21 21 21 21 22 24 24 23 22 22 21 21 21
28 28 27 27 26 26 26 25 25 25 25 25 25 25 25 25 26 26 26 26 25 25 27 28 28 28 28 28 29 29 29 29 29 29 30 29 29 29 30 29 26 25 24 24 27 27 21 19 20 21 25 29 28 25 22 20 21 23 22 22 22 22 22 21 21 22 23 23 23 22 22 22 21 21
28 27 27 26 26 26 26 25 25 25 26 27 27 26 26 26 26 26 26 26 26 25 25 27 28 28 28 29 29 30 30 30 30 31 32 30 29 30 31 31 28 27 24 21 23 27 25 22 23 23 24 27 29 28 24 19 20 22 22 22 22 22 22 21 21 21 22 23 22 21 21 22 22 23
28 27 26 26 26 26 26 25 25 25 26 27 27 27 28 28 27 26 25 26 27 27 26 27 28 28 28 29 29 30 31 31 30 31 32 30 30 31 31 31 30 30 27 21 21 25 25 24 24 23 23 24 26 28 26 21 20 21 21 22 22 21 22 21 21 21 22 22 22 21 21 21 22 23
28 27 26 26 26 26 25 25 26 26 26 27 27 28 29 29 28 27 26 26 26 28 29 29 29 29 29 29 29 30 30 31 31 31 30 30 30 30 30 29 29 29 27 23 23 25 24 22 23 23 24 24 25 27 27 23 20 20 20 22 22 22 22 21 21 21 21 22 22 21 20 21 22 23
28 27 26 25 25 24 24 25 26 27 27 27 28 28 30 29 28 27 27 27 27 27 29 29 30 30 30 29 28 27 27 28 29 29 28 27 27 27 27 27 27 29 27 23 23 24 23 21 22 23 25 25 25 27 28 24 20 18 19 21 21 21 21 21 20 20 21 21 21 21 20 21 22 23
28 28 27 26 25 25 24 25 26 27 28 28 28 29 29 28 27 27 28 28 27 28 28 28 30 30 29 27 26 25 24 24 25 25 25 24 25 27 27 26 27 28 26 22 23 24 23 21 21 22 25 25 24 25 28 27 23 19 17 19 21 21 21 21 21 20 21 21 21 21 20 21 21 22
30 30 29 28 28 27 26 25 26 27 28 29 29 28 27 27 27 28 28 28 29 29 28 29 29 29 28 27 26 26 25 23 23 24 24 23 24 26 26 26 26 26 24 23 24 25 24 23 21 21 23 24 24 24 26 28 28 23 17 17 20 22 22 22 22 21 20 21 20 20 21 21 21 22
31 31 31 30 30 30 28 27 27 28 29 30 30 28 27 27 28 28 29 30 30 30 29 29 29 29 28 28 27 25 24 23 22 23 24 24 24 24 24 24 26 26 25 25 26 25 25 25 23 22 22 23 24 25 25 25 28 28 21 16 19 22 23 23 22 21 20 20 20 21 21 22 22 22
32 32 31 31 31 30 29 28 28 28 29 31 30 29 29 29 29 29 30 31 31 30 30 29 28 28 27 27 26 25 24 23 22 23 25 26 26 27 26 25 27 27 26 27 28 27 26 25 24 23 22 22 23 25 25 23 26 30 27 20 20 23 23 23 22 21 20 21 21 21 22 23 23 23
32 32 31 31 31 30 30 29 29 29 29 30 30 30 30 30 30 30 30 31 30 30 29 28 27 27 26 26 26 25 25 25 25 25 26 27 27 28 28 29 30 30 28 28 28 27 28 27 26 25 24 23 23 24 25 25 26 30 30 26 23 24 24 24 23 21 21 22 22 22 23 24 24 24
32 32 32 32 32 32 32 32 30 29 29 29 30 31 31 31 31 30 30 30 29 27 26 25 24 24 24 24 24 24 24 24 24 25 26 27 27 27 27 29 31 32 31 30 29 29 29 30 29 27 25 25 25 24 26 27 27 30 32 29 26 26 26 24 24 23 22 23 23 23 24 24 25 25
33 33 34 34 34 35 35 34 33 31 29 29 30 31 31 31 30 30 29 28 28 26 25 24 23 23 24 24 24 23 23 23 23 23 25 27 27 26 27 29 31 32 32 32 31 31 31 31 31 29 27 26 27 26 27 28 28 29 33 32 29 29 28 26 25 25 24 24 24 23 23 24 24 25
36 36 35 35 36 37 38 36 35 33 32 31 31 31 31 31 31 31 31 30 29 28 27 27 26 26 26 27 27 26 26 26 25 25 26 27 27 27 27 29 30 31 31 31 31 32 33 33 33 32 30 28 29 28 28 30 29 30 33 33 31 31 31 28 27 26 25 25 25 24 23 23 24 24
37 38 38 37 37 38 37 36 35 34 33 33 33 33 34 34 34 34 34 33 32 31 30 30 30 30 30 31 31 31 30 29 29 28 28 28 28 28 28 29 30 30 30 30 30 32 33 33 33 34 33 31 30 30 30 32 32 31 33 34 32 32 32 31 29 28 26 26 26 25 24 24 24 24
37 38 39 38 37 37 36 35 35 34 34 34 35 35 35 36 36 36 35 34 33 33 33 33 32 32 32 33 34 34 33 32 31 31 32 31 31 30 30 30 29 29 28 28 28 29 32 33 32 33 34 33 32 32 31 32 32 32 33 34 34 32 31 31 32 30 27 27 28 28 26 26 26 25
37 39 38 37 37 37 37 36 35 35 34 33 33 35 36 36 36 36 34 33 34 35 35 35 35 35 35 35 35 36 35 34 33 33 34 34 34 33 32 31 30 29 28 28 27 27 31 34 33 33 34 34 34 33 32 31 31 31 32 33 33 33 32 31 31 30 29 29 31 31 29 29 29 28
36 39 39 38 38 38 38 37 36 36 36 34 33 35 37 37 38 37 34 32 34 35 35 35 36 36 36 37 37 37 37 36 35 34 35 36 36 35 34 33 32 31 29 29 28 27 30 34 35 34 33 34 34 33 31 29 28 30 32 32 32 33 32 31 31 32 31 31 33 33 32 32 33 33
33 38 40 41 41 40 39 38 37 36 36 36 36 37 37 37 39 39 36 33 34 34 35 36 36 36 37 37 38 38 38 38 37 35 34 35 35 35 34 33 33 32 31 30 29 28 30 34 37 35 32 31 32 31 29 28 29 30 31 32 32 32 33 32 32 33 33 33 34 34 33 33 35 37
32 35 36 37 39 40 39 39 38 36 36 38 38 38 38 38 39 39 38 36 35 35 36 36 37 37 38 38 38 37 37 37 37 35 33 33 34 34 34 34 34 35 34 32 31 30 31 34 37 36 32 29 29 29 29 31 32 32 31 32 34 35 36 36 36 35 34 35 36 37 36 35 37 39
35 36 36 36 38 40 41 41 40 39 39 39 39 40 40 41 41 39 38 38 38 38 38 38 38 39 40 40 39 38 36 36 37 36 34 34 34 34 35 35 36 36 36 35 35 34 34 35 36 36 32 29 29 31 31 33 35 35 33 34 36 38 38 38 37 36 36 36 37 39 39 38 39 40
37 39 39 40 40 42 43 43 42 42 41 41 41 41 40 41 41 39 37 37 38 39 40 40 40 41 41 40 37 34 33 34 35 36 36 36 36 35 35 35 36 37 37 37 36 36 35 34 34 35 34 33 34 34 32 33 36 37 35 34 37 39 38 37 37 37 37 37 38 40 41 41 41 41
41 42 42 42 43 44 44 45 45 45 43 42 42 42 42 42 42 40 39 39 38 39 41 42 43 44 44 42 37 32 32 33 34 35 36 37 36 36 36 35 36 37 38 37 35 35 34 34 34 35 37 37 36 36 36 35 36 37 38 37 36 37 38 38 37 36 36 37 38 40 42 43 43 43
45 45 45 44 45 45 45 45 46 46 46 45 44 43 43 43 43 42 42 42 41 41 43 44 46 47 45 40 35 31 31 32 34 36 38 37 37 37 38 37 38 37 37 36 34 33 34 35 36 38 39 39 39 39 40 39 38 39 41 41 38 37 38 38 37 36 36 37 38 39 41 43 45 47
43 44 44 43 44 44 45 45 46 47 48 47 46 45 46 46 45 45 45 45 45 44 44 46 48 47 41 34 31 30 29 29 33 37 39 39 39 40 39 39 39 38 37 37 36 36 37 39 40 41 42 43 43 43 43 43 42 41 43 44 41 38 37 39 39 38 37 37 38 40 41 43 45 48
39 39 40 39 40 41 42 44 46 47 48 48 47 47 46 46 45 45 46 47 48 47 47 50 51 45 37 33 33 32 31 30 32 35 37 39 41 42 41 40 40 39 39 40 41 41 42 43 44 45 46 46 47 46 46 46 45 44 44 45 45 42 40 41 42 42 40 39 40 42 44 46 46 45
38 38 38 38 38 38 38 39 40 41 42 42 43 43 44 46 47 48 48 49 50 47 47 51 51 42 34 34 35 34 34 34 34 36 38 39 41 43 43 43 44 44 44 44 46 46 47 48 50 51 50 49 49 48 48 48 48 47 45 45 45 44 43 42 43 43 42 42 42 43 47 48 47 44
Wind_Direction
167 173 178 182 184 188 192 195 199 203 207 211 213 208 201 200 204 207 205 208 219 230 239 251 260 273 300 321 334 345 350 349 351 352 354 360 6 4 359 357 357 360 3 5 6 8 10 9 7 5 5 4 3 3 5 6 7 7 6 5 4 3 3 3 3 4 5 5 6 8 11 14 15 16
174 175 177 183 187 188 193 200 204 208 213 216 215 212 211 208 209 214 216 214 219 230 242 254 265 280 296 306 318 327 336 344 346 347 347 348 355 1 358 351 350 354 357 359 1 2 4 5 4 4 4 3 2 1 1 4 6 7 8 8 7 5 4 4 3 4 5 5 6 7 10 14 15 17
183 183 183 186 190 190 193 200 207 212 217 221 220 218 218 217 215 219 225 226 229 236 245 257 272 283 289 296 306 314 322 335 340 342 343 342 342 347 353 349 345 348 350 351 355 357 358 359 360 1 2 2 1 360 359 0 3 5 7 8 8 7 5 4 3 4 5 5 6 6 9 13 15 17
190 191 190 191 193 195 198 201 206 211 216 221 223 221 221 223 225 226 230 234 237 242 248 256 268 276 284 291 297 304 311 321 328 331 335 338 336 334 340 347 344 342 345 346 347 350 352 353 353 355 358 360 360 359 358 358 359 2 5 7 7 7 6 4 3 4 4 5 6 6 7 11 14 16
201 197 195 195 196 197 202 207 210 212 216 221 224 225 225 230 234 234 234 237 241 247 252 258 265 273 280 286 290 297 303 309 317 321 324 330 333 330 330 338 342 338 339 341 341 343 346 347 348 349 352 355 357 357 356 355 356 358 1 4 5 6 6 4 3 3 4 4 5 5 6 9 12 14
216 211 207 202 201 202 206 212 217 219 221 223 226 229 231 235 239 239 239 242 246 250 254 259 266 273 280 285 290 294 298 302 307 312 316 319 323 325 323 326 334 334 333 335 337 338 340 342 343 344 346 348 351 353 354 353 353 355 357 0 2 4 4 4 2 2 2 3 3 5 6 7 10 12
229 227 225 218 213 213 214 217 221 226 229 231 233 234 235 237 241 243 244 246 249 252 256 260 266 271 277 282 287 292 295 298 301 303 307 311 314 318 318 318 324 328 328 330 332 334 336 337 338 340 341 342 344 348 350 351 351 351 353 357 359 1 2 2 1 0 1 1 1 3 5 6 8 11
238 236 235 234 229 226 225 226 228 231 233 237 239 241 242 243 245 247 249 251 253 254 257 261 266 271 275 278 282 287 291 292 295 298 300 302 306 311 312 312 316 321 322 324 326 328 329 330 333 336 336 337 339 341 344 348 349 349 350 353 355 357 359 360 360 359 359 360 360 1 2 4 6 9
244 245 243 243 241 240 238 237 238 239 239 240 243 246 249 251 253 254 255 257 258 259 260 262 266 271 275 279 282 285 289 291 294 296 298 300 302 305 307 308 311 313 315 318 319 320 322 323 328 332 332 333 335 335 337 342 346 347 348 349 351 353 355 357 358 357 357 358 358 359 360 1 4 6
248 249 249 248 248 248 248 247 247 247 246 248 249 250 253 255 257 259 260 262 263 264 265 266 268 271 274 277 281 284 287 290 293 295 298 300 301 303 305 307 309 310 311 312 312 314 316 316 320 326 327 330 332 332 333 336 341 345 346 345 347 349 351 353 355 355 355 356 357 357 357 359 1 4
253 253 252 253 253 253 252 252 253 254 254 256 258 258 260 261 262 263 264 265 266 267 269 270 271 273 275 278 280 284 286 288 291 293 295 297 299 302 303 304 307 308 310 311 311 311 312 311 315 320 321 325 328 328 328 330 335 340 342 343 344 346 347 349 351 353 353 354 355 355 356 356 359 2
255 257 257 257 257 257 256 256 258 260 261 261 263 265 266 266 267 268 269 270 271 271 272 273 275 276 278 281 283 285 287 289 290 291 292 295 297 298 299 301 303 304 305 308 309 311 311 310 312 314 313 316 322 322 323 327 330 332 336 341 342 343 344 345 347 350 351 352 353 353 354 354 356 359
253 256 257 258 258 259 259 258 259 262 263 264 265 267 269 269 269 270 272 273 274 275 275 276 278 279 280 283 284 285 287 288 288 289 290 293 295 296 298 300 302 302 303 303 305 308 311 310 311 311 309 310 315 319 319 321 324 327 332 337 339 339 340 341 343 346 347 349 350 351 352 352 353 356
252 254 255 256 257 260 262 262 260 260 263 266 267 267 269 270 271 272 273 275 276 277 277 277 278 279 281 283 284 286 288 288 288 289 290 291 293 294 295 296 298 299 299 299 300 301 304 305 307 310 310 309 313 317 316 316 320 324 328 332 334 335 336 337 338 341 343 345 347 348 349 349 350 352
251 253 255 257 258 260 263 264 263 262 263 266 268 269 270 271 272 272 273 275 277 278 278 278 278 278 280 282 284 286 288 288 289 290 291 292 292 292 293 294 296 298 297 296 297 296 297 298 301 304 305 306 310 313 313 313 317 320 323 326 329 331 332 333 334 336 338 341 343 344 345 346 347 349
255 256 257 258 260 262 265 266 266 265 266 269 270 271 272 271 272 273 274 274 276 277 277 277 277 279 280 282 284 286 287 287 288 290 292 293 294 294 295 295 297 299 299 298 297 297 298 298 298 300 301 301 305 309 309 310 312 314 318 322 325 326 328 329 330 331 333 336 339 340 342 342 343 345
259 259 259 260 261 263 266 269 270 269 269 270 272 273 273 273 273 274 274 274 274 275 276 276 277 279 280 280 281 283 284 285 287 288 289 291 293 295 296 298 300 302 301 300 299 299 301 300 299 300 298 298 303 307 308 309 309 311 316 319 321 322 323 325 327 328 329 332 334 336 338 339 339 341
259 259 260 260 261 262 264 267 271 273 271 270 270 271 273 274 274 274 274 274 275 275 275 276 278 278 279 279 279 279 280 282 284 285 286 289 291 293 296 299 302 304 303 301 300 301 304 301 299 301 298 296 302 306 306 307 308 309 313 316 317 318 319 321 323 324 326 328 330 332 334 336 336 337
257 258 259 260 261 261 262 264 267 270 272 270 268 268 269 271 273 273 273 274 276 277 277 277 278 277 277 278 278 278 278 279 281 282 283 285 288 292 295 298 302 304 304 303 301 301 303 299 297 300 298 297 302 305 304 306 308 308 311 314 314 315 316 317 319 321 323 324 325 328 330 332 333 334
256 256 257 258 259 260 260 261 263 265 269 270 269 268 269 269 270 272 273 274 273 275 277 278 278 277 277 276 277 277 277 277 279 280 281 284 288 292 295 297 301 303 303 305 305 303 302 297 296 297 294 296 301 302 302 307 308 307 309 311 311 312 312 313 316 318 320 320 321 324 326 329 331 331
257 255 255 256 257 258 258 259 261 262 265 268 270 270 271 271 271 272 276 277 276 274 275 276 277 277 276 276 276 276 275 275 277 278 280 284 288 290 293 296 300 300 299 302 302 300 301 300 298 295 293 295 299 300 302 307 308 306 308 307 306 308 309 310 313 315 317 318 317 319 322 326 329 330
258 257 257 256 256 258 259 260 262 262 263 265 268 271 272 273 272 273 276 279 281 281 279 276 276 276 275 275 275 275 276 276 275 276 279 283 286 287 290 294 297 297 297 299 295 292 295 298 297 296 295 296 298 298 300 306 307 305 306 305 305 307 307 309 311 313 315 315 313 315 318 322 325 326
259 259 259 258 259 260 261 262 264 264 264 265 266 269 271 271 271 273 275 276 277 280 281 279 278 277 276 274 274 274 276 278 278 279 281 284 286 288 289 290 290 291 294 299 296 292 293 294 294 296 297 298 300 298 298 303 305 303 303 304 305 306 306 306 309 311 312 311 310 311 315 319 323 324
261 261 262 261 262 262 263 264 265 264 264 264 264 264 265 266 269 271 273 273 272 274 276 278 279 279 278 277 277 276 277 280 283 285 286 287 287 286 286 287 288 289 291 294 292 290 293 294 293 295 297 300 303 300 298 300 301 299 298 299 300 304 305 305 307 308 309 308 307 307 311 316 321 324
262 262 263 264 264 263 261 260 261 262 262 261 260 260 262 264 266 267 268 269 269 269 270 272 275 277 279 280 281 282 283 284 285 286 286 286 284 284 285 287 288 290 293 294 290 289 292 293 292 294 295 298 300 299 298 300 299 296 296 298 300 303 304 305 306 306 306 305 303 304 307 312 317 321
261 262 264 264 264 263 261 257 255 256 257 258 259 260 262 263 263 263 264 264 265 266 267 268 270 272 273 276 280 284 287 288 287 285 283 279 277 282 287 290 290 290 290 289 287 288 291 292 292 291 292 294 296 295 296 299 299 296 295 299 302 304 304 304 305 304 303 301 300 301 303 306 311 316
259 261 261 262 262 262 260 258 255 253 254 256 258 260 262 261 260 260 260 261 261 263 264 265 268 270 273 276 280 284 288 288 286 285 283 281 280 282 286 288 290 291 290 288 287 288 289 290 290 289 288 290 291 291 293 296 297 296 296 298 301 303 303 303 304 303 301 299 298 298 300 302 306 311
257 258 259 258 258 259 259 259 256 254 254 255 257 259 260 260 260 260 259 260 262 263 265 266 269 272 274 277 280 283 284 285 282 281 282 283 285 286 287 286 286 287 288 288 289 291 291 290 289 288 287 287 287 288 290 292 292 293 294 298 300 300 300 300 300 299 299 299 299 299 299 300 303 307
254 255 256 255 255 256 257 257 256 254 254 255 256 258 259 260 261 261 261 262 263 266 270 272 274 276 277 277 279 279 279 278 277 277 279 281 283 285 287 287 287 287 287 286 286 287 288 288 289 289 289 289 286 285 287 288 288 289 291 295 298 297 296 296 294 291 292 295 297 299 299 299 300 303
251 252 254 255 255 255 254 254 254 254 254 255 256 257 259 261 262 262 263 265 267 270 273 275 276 278 278 278 278 278 277 276 275 275 277 279 280 281 282 283 284 286 287 287 286 286 285 286 289 291 291 289 286 283 284 284 285 287 289 292 295 295 293 292 290 287 287 290 293 296 297 298 298 300
249 250 253 255 255 255 255 254 254 253 252 253 255 257 260 262 264 265 265 267 268 270 272 273 275 276 276 277 278 279 280 280 279 279 280 280 280 280 280 279 280 282 284 285 286 286 287 287 289 291 292 290 287 285 284 283 283 285 287 289 293 294 292 290 288 286 285 286 289 292 294 295 297 298
253 251 250 250 250 253 255 255 255 254 254 254 255 257 259 260 262 264 265 267 269 271 273 274 275 276 275 276 277 278 279 281 282 282 282 282 283 282 281 279 279 281 283 284 285 286 287 287 289 290 291 291 289 288 286 284 284 285 285 287 291 292 291 290 287 284 283 283 285 288 291 293 295 296
257 254 252 250 248 250 253 254 255 255 256 255 255 256 258 260 261 263 264 266 269 272 274 275 275 276 276 276 276 277 277 279 280 282 282 283 284 283 281 279 278 279 281 284 285 285 285 285 286 287 289 290 289 288 287 286 285 285 286 288 289 289 289 289 286 283 281 280 282 285 287 289 291 293
256 258 257 250 246 249 252 254 255 255 255 256 256 256 257 258 260 262 263 265 268 271 273 275 276 276 276 276 277 277 277 278 278 279 280 282 282 281 279 277 276 276 278 280 281 283 285 285 285 285 287 288 286 286 286 286 287 287 287 288 288 287 288 287 285 283 281 280 281 283 283 284 286 289
255 261 258 248 244 249 252 253 254 254 254 255 256 257 258 259 260 262 264 267 269 271 272 274 275 276 276 277 277 277 278 278 278 277 277 278 279 279 279 277 276 276 276 277 279 282 285 286 286 285 285 286 286 285 285 286 288 289 288 288 288 288 288 287 285 283 283 282 283 283 282 282 283 285
253 260 258 250 246 248 249 250 252 253 252 251 251 254 257 260 262 264 266 268 271 272 273 274 274 274 275 275 275 275 275 276 275 275 276 277 278 277 277 277 276 275 274 275 280 283 283 284 284 284 283 284 284 284 285 287 289 289 288 289 289 288 287 285 283 282 282 282 282 282 281 281 283 284
248 253 256 254 252 250 248 249 250 250 249 248 248 251 255 257 259 263 266 269 270 272 274 275 275 274 274 273 272 272 272 272 272 272 272 274 275 277 277 277 276 276 275 276 277 279 279 281 282 282 282 283 284 285 288 289 287 285 286 286 285 283 283 282 281 282 284 283 282 280 279 279 282 284
251 251 253 255 257 257 254 252 251 251 249 248 250 253 256 257 257 260 263 267 269 270 271 272 273 274 274 274 273 272 271 271 271 271 271 272 273 275 276 276 276 277 278 277 275 274 276 277 279 280 281 283 284 287 291 290 286 284 285 284 282 282 283 283 284 286 287 286 284 283 280 278 280 282
259 259 259 258 259 261 261 260 258 257 256 256 257 258 260 261 262 263 264 265 267 267 268 269 270 271 273 274 274 273 272 271 271 272 272 273 274 274 274 275 276 277 277 276 275 275 275 275 276 278 280 282 283 285 289 290 287 286 287 286 285 286 286 285 284 285 286 287 286 285 282 281 280 279
259 262 263 261 260 262 264 265 264 263 261 261 261 262 262 264 265 266 265 265 265 266 267 267 267 268 269 271 271 271 272 272 272 271 270 271 273 274 274 275 276 276 276 274 274 274 274 275 276 278 280 282 281 281 283 284 285 287 290 291 290 288 286 283 280 281 284 286 286 286 284 282 280 279
259 261 263 262 260 261 263 265 266 266 266 265 265 264 264 264 264 265 266 266 266 267 267 268 267 267 268 269 270 273 275 276 274 271 269 269 272 273 273 273 273 273 273 273 272 272 275 277 278 278 279 278 276 277 280 282 285 288 291 292 290 286 282 279 277 277 280 282 284 286 286 285 283 280
256 258 259 260 260 261 262 263 264 266 266 267 267 267 267 266 265 266 266 265 266 267 267 268 269 269 270 273 278 281 280 276 274 272 269 268 270 270 270 270 270 270 271 271 272 273 276 277 276 276 276 276 276 278 282 284 286 287 288 289 288 284 279 275 274 274 275 277 279 281 283 284 284 282
254 255 256 258 259 259 261 261 262 263 265 266 267 268 269 268 267 267 266 266 266 266 266 267 269 270 273 280 286 286 281 275 272 272 272 271 270 270 270 271 271 272 273 274 275 276 277 277 277 277 278 279 280 282 284 285 285 286 287 287 287 283 276 272 272 272 273 274 276 278 278 279 280 280
252 253 254 255 256 257 258 259 259 260 261 263 264 266 268 268 268 267 266 265 264 263 263 266 270 273 280 285 287 286 285 281 276 274 273 273 273 273 273 274 273 273 273 275 276 277 277 278 278 277 277 278 280 282 285 285 285 284 283 283 284 284 278 272 271 272 274 277 281 280 278 275 273 272
250 251 252 253 255 256 256 256 256 256 257 259 261 263 265 267 267 267 266 266 266 267 268 271 274 277 281 284 283 284 285 284 282 279 277 276 275 275 276 276 274 272 271 272 274 275 276 277 277 276 275 276 278 280 282 284 284 283 280 279 281 282 278 273 272 273 275 280 285 284 280 274 268 264